Regional Weather Roundup
Issued by NWS Charleston, SC

Current Version | Previous Version | Graphics & Text | Print | Product List | Glossary On
Versions: 1 2 3 4 5 6 7 8 9 10 11 12 13 14 15 16 17 18 19 20 21 22 23 24 25 26 27 28 29 30 31 32 33 34 35 36 37 38 39 40 41 42 43 44 45 46 47 48 49 50
000
ASUS42 KCHS 031527
RWRCHS

REGIONAL WEATHER ROUNDUP
NATIONAL WEATHER SERVICE CHARLESTON SC
1100 AM EDT FRI JUL 03 2015

NOTE: "FAIR" INDICATES FEW OR NO CLOUDS BELOW 12,000 FEET WITH NO
SIGNIFICANT WEATHER AND/OR OBSTRUCTIONS TO VISIBILITY.

NOT ALL STATIONS ARE QUALITY CONTROLLED BY THE NATIONAL
WEATHER SERVICE. USE DATA WITH CAUTION...ESPECIALLY
DEWPOINT OBSERVATIONS.

SCZ027-030-031-034>040-042>050-031600-
...SOUTHEAST SOUTH CAROLINA...

CITY           SKY/WX    TMP DP  RH WIND       PRES   REMARKS
N CHARLESTON   PTSUNNY   80  72  76 W7        30.02R
WATERFRONT PAR   N/A     77  74  91 SW7       29.99F
MOUNT PLEASANT LGT RAIN  81  73  78 W7        30.03R
JOHNS ISLAND   PTSUNNY   82  75  78 SW9       30.03S
PINOPOLIS      NOT AVBL
MONCKS CORNER  FAIR      82  72  69 SW9G16    30.01S
SUMMERVILLE    PTSUNNY   81  73  78 S7        30.02F
BEAUFORT MCAS  PTSUNNY   82  73  74 W14       30.03F
BEAUFORT ARPT  FAIR      82  73  74 SW10G16   30.03S
HILTON HEAD IS MOSUNNY   82  72  69 SW14G20   30.04S
WALTERBORO     PTSUNNY   79  72  78 SW10      30.03S
ALLENDALE      FAIR      81  75  83 W8        30.00F

...SOUTHERN MIDLANDS AND PEE DEE...

CITY           SKY/WX    TMP DP  RH WIND       PRES   REMARKS
GEORGETOWN     NOT AVBL
KINGSTREE      NOT AVBL
ORANGEBURG     CLOUDY    77  71  82 SW13      29.99F
BARNWELL       FAIR      79  75  89 SW9       30.00F
AIKEN          NOT AVBL
MANNING        LGT RAIN  77  70  78 SW10      29.99F
COLUMBIA       CLOUDY    79  69  71 W17       29.97R
SUMTER         PTSUNNY   77  72  83 SW12      29.96S
FLORENCE       PTSUNNY   77  73  87 SW8G18    29.98S
MYRTLE BEACH   PTSUNNY   82  72  69 SW14      30.02
N MYRTLE BEACH PTSUNNY   81  72  74 SW9       30.00S

$$

GAZ063-065-086>088-099>101-113>116-118-119-134>141-150-031600-
...SOUTHEAST GEORGIA...

CITY           SKY/WX    TMP DP  RH WIND       PRES   REMARKS
SAVANNAH ARPT  MOSUNNY   85  72  65 W17       30.04S HX  91
HUNTER AAF     SUNNY     86  73  66 W16G23    30.02S HX  93
FORT STEWART   SUNNY     85  71  62 W13       30.03S
STATESBORO     NOT AVBL
SYLVANIA       MOSUNNY   84  77  78 SW8       30.03F HX  93
CLAXTON        FAIR      82  73  74 W10       30.04S

...CSRA...CENTRAL AND FAR SOUTHEAST GEORGIA...

CITY           SKY/WX    TMP DP  RH WIND       PRES   REMARKS
THOMSON        CLOUDY    75  73  93 N9        30.06R
AUGUSTA-BUSH   CLOUDY    76  72  87 SW3       29.99S
AUGUSTA-DANIEL HVY RAIN  72  69  90 NW6       30.02S VSB 1
SWAINSBORO     FAIR      86  77  74 W13G21    30.04S HX  97
VIDALIA        MOSUNNY   84  73  70 W9        30.05S HX  91
EASTMAN        FAIR      85  73  67 W14G21    30.07S HX  92
HAZLEHURST     FAIR      87  73  62 SW8G16    30.05S HX  94
ALMA           SUNNY     84  71  65 W10       30.06F
WAYCROSS       SUNNY     89  77  67 W13G21    30.07S HX 101
JESUP          FAIR      88  73  62 W10       30.07R HX  96
BAXLEY         FAIR      86  72  62 W7        30.06S HX  92
BRUNSWICK      SUNNY     86  72  62 W12       30.08R HX  92
SAINT SIMONS   SUNNY     84  71  65 SW9       30.07S

$$

SCZ027-028-034-036>038-045-046-048>050-GAZ119-141-031600-
...LAKE AND SUPPLEMENTAL COASTAL OBSERVATIONS...

STATION/POSITION TIME  TEMP    WIND        PRES    WAVE   SWELL
                       AIR SEA DIR/SP/G            HT/PER HT/PER/DIR
                 (UTC) (F)     (DEG/KT/KT) (MB)    (FT/S) (FT/S/D)
UPR LAKE MARION  NOT AVBL
WINYAH BAY       1445   79     250/  8     1015.0S
LAKE MURRAY      1500   77     250/ 11/ 14 1014.2S
ACE BASIN NERRS  1400   78     140/  4     1017.0S
FORT PULASKI     1500   83 83  270/ 13/ 16 1017.6S
SAPELO ISLAND    1500   84     260/ 14     1018.0S

$$

ANZ835-935-AMZ111-154-330-350-352-354-370-450-454-472-031600-
...C-MAN AND BUOY OBSERVATIONS...

STATION/POSITION TIME  TEMP    WIND        PRES    WAVE   SWELL
                       AIR SEA DIR/SP/G            HT/PER HT/PER/DIR
                 (UTC) (F)     (DEG/KT/KT) (MB)    (FT/S) (FT/S/D)
BUOY 41004       1450   81 81  250/ 17/ 21 1016.4F   5/ 5   2/ 8
BUOY 41008       1450   78 79  230/ 12/ 12 1018.1R   3/ 4   2/110/10
FOLLY BEACH CMAN 1500   79     220/ 14/ 17 1016.7R
CAPERS NEARSHORE 1408   78     250/ 17/ 25 1016.6F
FRIPP NEARSHORE  1400   81     240/ 16/ 17 1016.6F


STATION/POSITION TIME  TEMP    WIND        PRES    WAVE   SWELL
                       AIR SEA DIR/SP/G            HT/PER HT/PER/DIR
                 (UTC) (F)     (DEG/KT/KT) (MB)    (FT/S) (FT/S/D)
5E ST. MARYS GA  1421      77                N/A     2/ 9
FRYING PAN BUOY  1450   80 79  230/ 19/ 23 1016.2S   5/ 6
BUOY 41025       1450   76 82  260/ 16/ 19 1015.3R   5/ 7   3/190/ 7
CAPE LOOKOUT NC  1500   79     250/ 20/ 21 1015.8R
BUOY 41002       1450   79 80  290/ 16/ 19 1019.5R   7/ 7   3/150/ 9
BUOY 41010       1420   83 84  200/ 10/ 10 1019.9R
ST AUGUSTINE FL  1500   85 73  250/  6/ 10 1019.8F


$$



USA.gov is the U.S. government's official web portal to all federal, state and local government web resources and services.